Regional Weather Roundup
Issued by NWS

Home | Current Version | Previous Version | Graphics & Text | Print | Product List | Glossary Off
Versions: 1 2 3 4 5 6 7 8 9 10 11 12 13 14 15 16 17 18 19 20 21 22 23 24 25 26 27 28

000
ASUS45 KTFX 220910
RWRMT
MONTANA REGIONAL WEATHER ROUNDUP
NATIONAL WEATHER SERVICE GREAT FALLS MT
300 AM MDT SAT JUL 22 2017

NOTE: "FAIR" INDICATES FEW OR NO CLOUDS BELOW 12000 FEET WITH NO
SIGNIFICANT WEATHER AND/OR OBSTRUCTIONS TO VISIBILITY.

MTZ001>007-043-221000-
WEST OF THE DIVIDE

CITY           SKY/WX    TMP DP  RH WIND       PRES   REMARKS
KALISPELL      CLEAR     49  41  74 CALM      30.13R
MISSOULA       CLEAR     56  36  47 CALM      30.16R
BUTTE          CLEAR     49  30  48 SE5       30.26S
MULLAN PASS    CLEAR     53  33  46 VRB3      30.28R
ANACONDA         N/A     52  30  43 S6        30.24R
DEER LODGE       N/A     52  34  50 CALM      30.23S
EUREKA           N/A     55  43  62 MISG      30.12S
HAMILTON         N/A     55  34  44 SE3       30.17S
LIBBY            N/A     54  41  62 SE3       30.13S
PLAINS           N/A     53  40  61 CALM      30.14
$$

MTZ008-052>055-221000-
SOUTHWEST MONTANA

CITY           SKY/WX    TMP DP  RH WIND       PRES   REMARKS
BOZEMAN        CLEAR     55  38  52 VRB5      30.19R
DILLON         CLEAR     51  23  33 SE6       30.22S
W YELLOWSTONE  CLOUDY    41  30  65 S7        30.29S
ENNIS          MOCLDY    50  30  46 SE6       30.27S
THREE FORKS      N/A     51  40  66 CALM      30.15S
TWIN BRIDGES     N/A     55  30  38 CALM      30.18
$$

MTZ009-010-012-014-046-048-049-054-221000-
EAST SLOPES AND CENTRAL MONTANA

CITY           SKY/WX    TMP DP  RH WIND       PRES   REMARKS
CUT BANK       CLOUDY    53  43  68 W5        30.14R
GREAT FALLS    PTCLDY    61  36  39 E8        30.14R
MALMSTROM AFB  PTCLDY    57  33  40 NE3       30.13R
HELENA         CLOUDY    65  33  30 SW6       30.15S
CHOTEAU          N/A     55  39  54 N5        30.16S
CONRAD           N/A     54  48  80 W2        30.15R
$$

MTZ011-013-016-021-045-047-050-051-221000-
NORTH CENTRAL MONTANA

CITY           SKY/WX    TMP DP  RH WIND       PRES   REMARKS
HAVRE          CLEAR     53  42  66 SW5       30.08R
LEWISTOWN      CLEAR     51  32  48 SE6       30.15R
N BAR RANCH      N/A     52  28  40 NW8       30.18S
CHINOOK          N/A     54  45  71 W3        30.06R
$$

MTZ017>020-022>027-061-062-221000-
NORTHEAST MONTANA

CITY           SKY/WX    TMP DP  RH WIND       PRES   REMARKS
GLASGOW        CLEAR     58  40  51 NW7       30.00R
JORDAN           N/A     52  34  50 W5        30.04R
SIDNEY         CLEAR     57  42  57 CALM      29.97R
WOLF POINT     CLEAR     55  41  59 SW5       29.97R
MALTA          PTCLDY    57  45  62 SW8       30.03R
PLENTYWOOD       N/A     61  48  63 CALM      29.95R
POPLAR           N/A     57  43  58 SW3       29.96S
SCOBEY           N/A     48  38  68 CALM      29.97
$$

MTZ028>42-056>058-221000-
SOUTHCENTRAL AND SOUTHEAST MONTANA

CITY           SKY/WX    TMP DP  RH WIND       PRES   REMARKS
BAKER          CLEAR     56  37  49 CALM      30.02R
BILLINGS       CLEAR     65  25  22 NW10      30.10R
LIVINGSTON     CLEAR     52  33  48 S7        30.18S
MILES CITY     PTCLDY    60  28  29 NW9       30.01R
BIG TIMBER     MOCLDY    63  32  31 S12       30.19S
EKALAKA          N/A     61  30  31 SE1       30.03
FORSYTH          N/A     64  34  32 SW5       30.03R
LAUREL           N/A     66  25  21 NW2       30.09F
ROUNDUP          N/A     61  25  25 W6        30.02R
$$

REGIONAL REPORTS...DAKOTAS

CITY           SKY/WX    TMP DP  RH WIND       PRES   REMARKS
WILLISTON      CLEAR     59  47  64 S3        29.94R
MINOT          CLEAR     61  52  72 SW7       29.87R
DICKINSON      CLEAR     58  46  64 NW8       29.95S
BEACH          MOCLDY    52  45  76 CALM      30.03R
CROSBY           N/A     54  52  94 W8        29.93R
TIOGA            N/A     54  52  94 W7        29.95R
WATFORD CITY     N/A     52  46  82 CALM      29.95R
BISMARCK       CLEAR     62  61  96 SW3       29.89R
GRAND FORKS    CLOUDY    70  70 100 N7        29.80R
FARGO          LGT RAIN  68  64  87 N16       29.82R
BUFFALO SD       N/A     60  45  57 SW6       29.95R
RAPID CITY     CLOUDY    68  42  38 N12       30.00S
$$

REGIONAL REPORTS...WYOMING/IDAHO/WASHINGTON

CITY           SKY/WX    TMP DP  RH WIND       PRES   REMARKS
GILLETTE       CLOUDY    59  38  45 S3        30.07S
SHERIDAN       CLEAR     61  42  49 CALM      30.09R
BUFFALO WY     CLOUDY    69  36  29 N9        30.15R
CODY           CLEAR     67  30  25 CALM      30.19R
YELLOWSTONE LA   N/A     40  35  83 NW3       30.38S
IDAHO FALLS    CLEAR     62  42  47 S10       30.13R
BOISE          CLEAR     64  45  49 SW5       30.05R
SPOKANE        MOCLDY    63  39  41 S7        30.12R
$$

REGIONAL REPORTS...ALBERTA

CITY           SKY/WX    TMP DP  RH WIND       PRES   REMARKS
EDMONTON       CLEAR     55  54  94 W6        29.97S
CALGARY        CLEAR     55  39  54 SW6       30.09S
LETHBRIDGE     CLEAR     50  43  76 S9        30.09S
MEDICINE HAT   CLEAR     52  48  87 SW7       30.05R
CARDSTON         N/A     52  43  71 S3          N/A
MILK RIVER       N/A     48  43  81 W7          N/A
$$

REGIONAL REPORTS...SASKATCHEWAN

CITY           SKY/WX    TMP DP  RH WIND       PRES   REMARKS
SWIFT CURRENT  CLEAR     54  50  87 W9        29.97R
REGINA         FOG       50  50 100 W5        29.92R VSB 3/4
SASKATOON      MOCLDY    48  48 100 NW3       29.94R
CYPRESS HILLS    N/A     54  46  76 NW7         N/A
VAL MARIE        N/A     48  41  76 NW6         N/A
ROCKGLEN         N/A     55  46  71 W9          N/A
ASSINIBOIA       N/A     54  54 100 W2          N/A
$$




USA.gov is the U.S. government's official web portal to all federal, state and local government web resources and services.